Back to catalog

IXPE

AliveScienceVLEO
NORAD 49954·PAYLOAD·🇺🇸 United States

Launched Dec 9, 2021 from Cape Canaveral Space Force Station

Loading…

Next Passes (next 24 hours)

TLE

FreshSource: Space-Track

Epoch: Sep 14, 2026, 16:00 UTC

1 49954U 21121A   26257.66671296  .00009926  00000-0  52282-3 0  9991
2 49954   0.2310   0.0890 0006708 355.8556 121.6648 15.10964432  5800

Track IXPE in real time with AllMySat

Download on the App Store